Regional Weather Roundup
Issued by NWS

Home | Current Version | Previous Version | Text Only | Print | Product List | Glossary Off
Versions: 1 2 3 4 5 6 7 8 9 10 11 12 13 14 15 16 17 18 19 20 21 22 23 24 25 26 27 28 29 30 31 32 33 34 35 36 37 38 39 40 41 42 43 44 45 46 47 48 49 50

000
ASUS45 KABQ 261901
RWRNM
NEW MEXICO REGIONAL WEATHER ROUNDUP
NATIONAL WEATHER SERVICE ALBUQUERQUE NM
100 PM MDT THU APR 26 2018

NOTE: "FAIR" MEANS FEW OR NO CLOUDS BELOW 12,000 FEET AGL WITH NO
       SIGNIFICANT WEATHER OR OBSTRUCTIONS TO VISION.

      THIS PRODUCT IS RELEASED AS TWO VERSIONS.  ONE VERSION NEAR
      THE TOP OF THE HOUR CONTAINING PRELIMINARY DATA FROM ALBUQUERQUE
      AND OTHER STATIONS.  A FINAL VERSION WITH ADDITIONAL DATA IS
      ISSUED ABOUT 10 MINUTES AFTER THE HOUR.

NMZ501-503-504-510>518-262000-
NORTHWEST PLATEAU/NORTHCENTRAL MOUNTAINS

CITY           SKY/WX    TMP DP  RH WIND       PRES   REMARKS
FARMINGTON     FAIR      75  11   8 NW17G25   30.07F
LOS ALAMOS     FAIR      64   7  10 NE9       30.16S
SANTA FE       FAIR      72   7   8 N10       30.10F
TAOS           FAIR      65  13  13 N12G26    30.18S
ANGEL FIRE     FAIR      56  19  23 NE15G22   30.20F

$$
NMZ402-403-502-505>509-262000-
WESTCENTRAL MOUNTAINS/SOUTHWEST MOUNTAINS

CITY           SKY/WX    TMP DP  RH WIND       PRES   REMARKS
GALLUP         FAIR      76  14   9 N12G17    30.16F
GRANTS         FAIR      74  12   9 NW17G32   30.16F
SILVER CITY    FAIR      81  19  10 NW13G18   30.09F

$$
NMZ407-409-411-412-262000-
SOUTHERN DESERTS

CITY           SKY/WX    TMP DP  RH WIND       PRES   REMARKS
DEMING         FAIR      82  27  13 SE6       30.04F
LAS CRUCES     FAIR      79  29  16 E5        30.06F
HOLLOMAN AFB   FAIR      82  35  19 W5        30.06F
ALAMOGORDO     FAIR      75  32  20 NW8       30.05F
T OR C         FAIR      82  23  11 E12G24    30.04F

$$
NMZ519>523-262000-
CENTRAL VALLEYS/CENTRAL HIGHLANDS

CITY           SKY/WX    TMP DP  RH WIND       PRES   REMARKS
ALBUQUERQUE    FAIR      77  15   9 NW20G30   30.06F
DOUBLE EAGLE   SUNNY     75  14   9 W15G32    30.10F
MORIARTY ARPT  FAIR      74  15  10 N17       30.12S
CLINES CORNERS FAIR      67  20  16 E22G29    30.17S
BELEN          FAIR      76  16  10 N3        30.07F
SOCORRO        FAIR      81  19  10 NE10      30.04F

$$
NMZ524>526-539-540-262000-
SOUTHCENTRAL MOUNTAINS

CITY           SKY/WX    TMP DP  RH WIND       PRES   REMARKS
RUIDOSO        FAIR      68  19  15 NW14G30   30.18F

$$
NMZ527>531-262000-
NORTHEAST HIGHLANDS/NORTHEAST PLAINS

CITY           SKY/WX    TMP DP  RH WIND       PRES   REMARKS
LAS VEGAS      FAIR      61  20  20 NE14G26   30.17S
RATON          FAIR      58  25  28 N28G40    30.20R
CLAYTON        FAIR      62  29  28 N30G49    30.12R

$$
NMZ532>537-262000-
EASTCENTRAL PLAINS

CITY           SKY/WX    TMP DP  RH WIND       PRES   REMARKS
SANTA ROSA     FAIR      70  23  17 NE17G29   30.09F
TUCUMCARI      FAIR      72  27  18 N23G37    30.07S
CANNON AFB     FAIR      68  28  22 N30G41    30.08R
CLOVIS AIRPORT FAIR      69  29  22 N33G39    30.07R

$$
NMZ028-029-538-262000-
SOUTHEAST PLAINS

CITY           SKY/WX    TMP DP  RH WIND       PRES   REMARKS
ROSWELL        FAIR      84  34  16 NE12G20   29.94F
ARTESIA        FAIR      79  36  21 SE7       29.96F
CARLSBAD       FAIR      78  42  27 E5        29.94F
HOBBS          SUNNY     79  34  19 SW10G18   29.97F


$$




USA.gov is the U.S. government's official web portal to all federal, state and local government web resources and services.